This demonstration page uses our WeatherBlox Daily Observations layout. Learn more.

Left ArrowRight Arrow

36.17497, -115.13722

Hourly Observations for August 21, 2021

Temp ( °F °C ) Dew Point ( °F °C ) Humidity (%) Winds ( mph kmh ) Pressure ( in mb ) Visibility ( mi km ) Precip ( " mm )
12:53 am 00:53 Clear with Smoke 87 30.6 47 8.3 25 25 SSW 10 17 29.72 1007 10 16 0.00 0.00
1:53 am 01:53 Clear with Smoke 85 29.4 48 8.9 28 28 S 7 11 29.72 1007 10 16 0.00 0.00
2:53 am 02:53 Clear with Smoke 84 28.9 49 9.4 30 30 S 6 9 29.72 1006 10 16 0.00 0.00
3:53 am 03:53 Clear with Smoke 83 28.3 50 10 32 32 SSW 6 9 29.72 1006 10 16 0.00 0.00
4:53 am 04:53 Clear with Smoke 82 27.8 51 10.6 34 34 SSW 7 11 29.72 1006 10 16 0.00 0.00
5:53 am 05:53 Clear with Smoke 80 26.7 50 10 35 35 E 5 7 29.73 1007 10 16 0.00 0.00
6:53 am 06:53 Partly Cloudy with Smoke 80 26.7 51 10.6 37 37 Calm 29.75 1007 10 16 0.00 0.00
7:53 am 07:53 Cloudy with Smoke 83 28.3 52 11.1 34 34 Calm 29.75 1008 10 16 0.00 0.00
8:53 am 08:53 Sunny with Smoke 85 29.4 52 11.1 32 32 E 3 6 29.75 1007 10 16 0.00 0.00
9:53 am 09:53 Sunny 89 31.7 53 11.7 29 29 SE 16 26 29.74 1007 10 16 0.00 0.00
10:53 am 10:53 Sunny 91 32.8 51 10.6 26 26 SSE 15 24 29.73 1007 10 16 0.00 0.00
11:53 am 11:53 Sunny 94 34.4 49 9.4 21 21 SSE 21 33 29.70 1006 10 16 0.00 0.00
12:23 pm 12:23 Sunny 95 35 46 7.8 19 19 SSE 17 28 29.54 1000 10 16 0.00 0.00
12:37 pm 12:37 Sunny 95 35 46 7.8 19 19 SSE 15 24 29.54 1000 10 16 0.00 0.00
12:53 pm 12:53 Sunny 95 35 42 5.6 16 16 S 12 19 29.68 1005 10 16 0.00 0.00
1:53 pm 13:53 Sunny 97 36.1 40 4.4 14 14 S 15 24 29.66 1004 10 16 0.00 0.00
2:53 pm 14:53 Sunny 98 36.7 39 3.9 13 13 S 14 22 29.63 1003 10 16 0.00 0.00
3:53 pm 15:53 Sunny 99 37.2 42 5.6 14 14 S 15 24 29.62 1003 10 16 0.00 0.00
4:53 pm 16:53 Sunny 99 37.2 38 3.3 12 12 S 15 24 29.60 1002 10 16 0.00 0.00
5:53 pm 17:53 Sunny 98 36.7 41 5 14 14 S 12 19 29.61 1003 10 16 0.00 0.00
6:53 pm 18:53 Sunny 96 35.6 41 5 15 15 S 13 20 29.62 1003 10 16 0.00 0.00
7:53 pm 19:53 Clear 94 34.4 40 4.4 15 15 SSW 20 31 29.63 1003 10 16 0.00 0.00
8:53 pm 20:53 Clear 92 33.3 44 6.7 19 19 S 17 28 29.66 1004 10 16 0.00 0.00
9:53 pm 21:53 Clear 91 32.8 44 6.7 20 20 S 16 26 29.68 1005 10 16 0.00 0.00
10:53 pm 22:53 Clear 89 31.7 46 7.8 23 23 S 10 17 29.70 1006 10 16 0.00 0.00
11:53 pm 23:53 Clear 88 31.1 47 8.3 24 24 S 9 15 29.71 1006 10 16 0.00 0.00

Powered by AerisWeather